Location: Hurecourt
(47.9030°N, 6.0653°E)
Time: 04:33:02
(UTC+00:00)

Okean 1 - Pass Details

Date: 14 July 2020
Orbit: 538 x 556 km, 82.5° (Epoch: 06 August)

Event Time Altitude Azimuth Distance (km) Brightness Sun altitude
Rises 00:16:39 0° 355° (N) 2,707 8.3 -20.0°
Reaches altitude 10° 00:18:53 10° 2° (N) 1,811 7.1 -20.0°
Maximum altitude 00:22:44 47° 76° (ENE) 729 4.0 -19.9°
Enters shadow 00:24:03 33° 127° (SE) 925 4.2 -19.8°
